Weather in Iksan

South Korea     35°56′40″N   126°57′24″E
temp.,
°C
wind,
m/s
gust,
m/s
humid.,
%
clouds,
%
prec.,
mm/h
press.,
hPa
HPBL,
m
14 april, wed
wed1400:00+5nw1262100 0.0 101956
03:00+4wnw116377 0.0 101922
06:00+3ne016792 0.0 101910
09:00+8n364239 0.0 1021811
12:00+13nnw47260 0.0 10211729
15:00+14nw78250 0.0 10191645
18:00+10wnw45380 0.0 1020684
21:00+6s11630 0.0 102213
15 april, thu
thu1500:00+5s11673 0.0 102212
03:00+4s22670 0.0 102116
06:00+3ese1167100 0.0 102110
09:00+9ne1155100 0.0 1021330
12:00+13nnw3237100 0.0 1020864
15:00+16sse22285 0.0 10171152
18:00+15w34370 0.0 1016123
21:00+8s22595 0.0 101828
16 april, fri
fri1600:00+8s3463100 0.0 101762
03:00+8sse2362100 0.0 101677
06:00+8sse3667100 0.0 1014127
09:00+10ssw51371100 0.1 1015921
12:00+13sw697899 0.0 1016936
15:00+16wsw784965 0.1 10151308
18:00+12wsw4659100 0.0 1016610
21:00+8s22790 0.0 101713
17 april, sat
sat1700:00+7s23800 0.0 101629
03:00+6s22695 0.0 101613
06:00+5sse2371100 0.3 101658
09:00+12sw37524 0.8 1016671
12:00+16wnw611370 0.0 10162647
15:00+15wnw914280 0.0 10172574
18:00+11wnw613380 0.0 10181629
21:00+7w34600 0.0 101969
18 april, sun
sun1800:00+6wsw24680 0.0 101962
03:00+6w23700 0.0 101950
06:00+5wsw12750 0.0 101924
09:00+12wnw69440 0.0 1019892
12:00+16wnw711300 0.0 10181821
15:00+16wnw711270 0.0 10171590
18:00+13w57430 0.0 1017578
21:00+7ssw33830 0.0 101955